Prescott, AZ

8:04 PM MST on November 11, 2019 (GMT -0700)
Love

Weather History for KPRC - September, 2019

Change the Weather History Date:

Wednesday, September 11, 2019

  Actual Average Record
Temperature  
Mean Temperature 69 °F 69 °F  
Max Temperature 78 °F 84 °F 96 °F (1990)
Min Temperature 60 °F 55 °F 42 °F (1986)
Degree Days  
Heating Degree Days 0    
Month to date heating degree days  
Since 1 July heating degree days  
Cooling Degree Days 4    
Month to date cooling degree days  
Year to date cooling degree days  
Growing Degree Days 19 (Base 50)    
Moisture  
Dew Point 44 °F    
Average Humidity 44    
Maximum Humidity 70    
Minimum Humidity 25    
Precipitation  
Precipitation 0.00 in 0.05 in 0.86 in (1977)
Month to date precipitation 0.62  
Year to date precipitation 10.28  
Sea Level Pressure  
Sea Level Pressure 29.92 in    
Wind  
Wind Speed 9 mph ()    
Max Wind Speed 16 mph    
Max Gust Speed 24 mph    
Visibility 10.0 miles    
Events      
T = Trace of Precipitation, MM = Missing Value Source: Averaged Metar Reports

Daily Weather History Graph

Daily Weather History Graph

Search for Another Location

Airport or City:

Astronomy

Sep. 11, 2019 Rise Set
Actual Time 6:09 AM MST 6:42 PM MST
Civil Twilight 5:44 AM MST 7:07 PM MST
Nautical Twilight 5:14 AM MST 7:37 PM MST
Astronomical Twilight 4:44 AM MST 8:07 PM MST
Moon 5:49 PM MST (9/11) 3:44 AM MST (9/11)
Length of Visible Light 13h 23m
Length of Day
12h 32m
Waxing Gibbous, 95% of the Moon is Illuminated
Sep 11
Waxing Gibbous
Sep 13
Full
Sep 21
Last Quarter
Sep 28
New
Oct 5
First Quarter

Hourly Weather History & Observations

Time (MST) Temp. Dew Point Humidity Pressure Visibility Wind Dir Wind Speed Gust Speed Precip Events Conditions
12:53 AM 66.0 °F 35.1 °F 32% 29.81 in 10.0 mi South 11.5 mph 20.7 mph N/A   Clear
1:53 AM 64.0 °F 27.0 °F 25% 29.83 in 10.0 mi SSW 5.8 mph - N/A   Clear
2:53 AM 61.0 °F 28.0 °F 29% 29.85 in 10.0 mi South 4.6 mph - N/A   Clear
3:53 AM 61.0 °F 30.0 °F 31% 29.87 in 10.0 mi South 8.1 mph - N/A   Clear
4:53 AM 60.1 °F 37.0 °F 42% 29.89 in 10.0 mi SSW 11.5 mph - N/A   Clear
5:53 AM 60.1 °F 48.0 °F 64% 29.91 in 10.0 mi South 15.0 mph - N/A   Clear
6:53 AM 61.0 °F 51.1 °F 70% 29.94 in 10.0 mi SSW 11.5 mph - N/A   Clear
7:53 AM 64.0 °F 51.1 °F 63% 29.95 in 10.0 mi SSW 9.2 mph - N/A   Clear
8:53 AM 66.0 °F 50.0 °F 56% 29.97 in 10.0 mi SSW 16.1 mph 20.7 mph N/A   Clear
9:53 AM 69.1 °F 51.1 °F 53% 29.96 in 10.0 mi South 10.4 mph 23.0 mph N/A   Partly Cloudy
10:53 AM 73.0 °F 48.0 °F 41% 29.95 in 10.0 mi South 16.1 mph 24.2 mph N/A   Partly Cloudy
11:53 AM 73.9 °F 48.9 °F 41% 29.95 in 10.0 mi South 11.5 mph 20.7 mph N/A   Partly Cloudy
12:53 PM 75.0 °F 46.9 °F 37% 29.93 in 10.0 mi South 10.4 mph - N/A   Scattered Clouds
1:53 PM 77.0 °F 42.1 °F 29% 29.91 in 10.0 mi SW 10.4 mph - N/A   Partly Cloudy
2:53 PM 78.1 °F 43.0 °F 29% 29.90 in 10.0 mi SW 11.5 mph 21.9 mph N/A   Clear
3:53 PM 78.1 °F 44.1 °F 30% 29.90 in 10.0 mi SW 13.8 mph - N/A   Scattered Clouds
4:53 PM 78.1 °F 44.1 °F 30% 29.91 in 10.0 mi WSW 12.7 mph - N/A   Scattered Clouds
5:53 PM 75.0 °F 46.0 °F 36% 29.91 in 10.0 mi WSW 11.5 mph - N/A   Partly Cloudy
6:53 PM 72.0 °F 46.0 °F 40% 29.93 in 10.0 mi WSW 9.2 mph - N/A   Partly Cloudy
7:53 PM 69.1 °F 46.0 °F 44% 29.95 in 10.0 mi WSW 6.9 mph - N/A   Clear
8:53 PM 66.9 °F 48.0 °F 51% 29.96 in 10.0 mi SW 4.6 mph - N/A   Clear
9:53 PM 63.0 °F 46.9 °F 56% 29.99 in 10.0 mi South 4.6 mph - N/A   Clear
10:53 PM 61.0 °F 46.9 °F 60% 29.98 in 10.0 mi South 6.9 mph - N/A   Clear
11:53 PM 60.1 °F 46.9 °F 62% 30.00 in 10.0 mi North - - N/A   Clear